Find Starlink 34675

NORAD ID: 64809 Int'l Des: 2025-150 Owner: SPXS Country: US Constellation: starlink operational
LEOCIRCULAR

当前视图

正在加载3D地球...

About Starlink 34675

Starlink 34675 (NORAD 64809) is a starlink constellation satellite (v2 mini) launched Jul 16, 2025 by SPXS of US. It operates in LEO, CIRCULAR orbit with a mass of 575.00 kg.

即将过境

Passes for default location (London). Set your location on the main map for personalized predictions.

高度历史

Loading altitude history...

两行轨道根数

1 64809U 25150V 26263.00447750 .00002019 00000-0 17697-3 0 9991
2 64809 70.0023 4.5074 0003304 269.1959 90.8821 14.98335884 65622
Epoch: Sep 20, 2026 • Age: 18 hours

当前状态

高度 578.5 km
远地点 / 近地点 N/A
速度 7.57 km/s
星下点 38.67°N, 111.09°E
发射日期 Jul 16, 2025
运行时间 1.1 years
类型 internet

技术详情

分类 Payload
质量 575.00 kg
干质量 530.00 kg
长度 0.30 m
跨度 29.00 m
形状 ? Box + pan
制造商 SPXS
平台类型 Starlink V2MO
阶段状态 In Orbit
所有者/国家 SPXS/US

Most Searched